JAL461 RJTT-RJOS

Flight info

Callsign JAL461
Flight time 0h 53m
Altitude 28000
Route LAXAS4 LAXAS Y56 TOHME Y54 KOHWA Y544 SINGU Y542 DATIS DCT
Aircraft B738/M-VGDW/C

Departure

Time 2026-04-25 07:08
Airport Tokyo Haneda International Airport (RJTT)

Arrival

Time 2026-04-25 08:01
Airport Tokushima Awaodori Airport / JMSDF Tokushima Air Base (RJOS)
Time Latitude Longitude Altitude Speed Heading
2026-04-25 06:34 35.54662 139.78451 28 ft 0 kts 60°
2026-04-25 06:35 35.54664 139.78457 25 ft 0 kts 60°
2026-04-25 06:51 35.54656 139.78440 24 ft 4 kts 60°
2026-04-25 06:51 35.54643 139.78411 22 ft 4 kts 60°
2026-04-25 06:52 35.54629 139.78383 23 ft 4 kts 60°
2026-04-25 06:52 35.54616 139.78354 22 ft 4 kts 60°
2026-04-25 06:52 35.54605 139.78330 23 ft 4 kts 68°
2026-04-25 06:52 35.54600 139.78300 24 ft 4 kts 103°
2026-04-25 06:53 35.54612 139.78274 26 ft 4 kts 144°
2026-04-25 06:53 35.54620 139.78268 24 ft 1 kts 149°
2026-04-25 06:58 35.54616 139.78270 25 ft 2 kts 150°
2026-04-25 06:58 35.54586 139.78292 27 ft 8 kts 149°
2026-04-25 06:58 35.54529 139.78333 23 ft 10 kts 150°
2026-04-25 06:58 35.54468 139.78376 25 ft 10 kts 150°
2026-04-25 06:59 35.54394 139.78428 24 ft 15 kts 150°
2026-04-25 06:59 35.54318 139.78482 25 ft 11 kts 150°
2026-04-25 06:59 35.54250 139.78468 22 ft 11 kts 230°
2026-04-25 06:59 35.54180 139.78452 21 ft 12 kts 152°
2026-04-25 07:00 35.54092 139.78514 22 ft 19 kts 149°
2026-04-25 07:00 35.53956 139.78612 20 ft 25 kts 149°
2026-04-25 07:00 35.53812 139.78713 20 ft 18 kts 150°
2026-04-25 07:00 35.53710 139.78802 18 ft 19 kts 140°
2026-04-25 07:01 35.53591 139.78926 17 ft 26 kts 139°
2026-04-25 07:01 35.53464 139.79060 17 ft 21 kts 139°
2026-04-25 07:01 35.53392 139.79149 20 ft 13 kts 118°
2026-04-25 07:01 35.53374 139.79252 19 ft 13 kts 74°
2026-04-25 07:02 35.53425 139.79365 21 ft 19 kts 59°
2026-04-25 07:02 35.53501 139.79525 22 ft 24 kts 60°
2026-04-25 07:02 35.53584 139.79700 18 ft 24 kts 60°
2026-04-25 07:02 35.53661 139.79862 22 ft 17 kts 59°
2026-04-25 07:03 35.53708 139.79964 21 ft 12 kts 70°
2026-04-25 07:03 35.53673 139.80048 21 ft 14 kts 147°
2026-04-25 07:03 35.53563 139.80126 28 ft 21 kts 150°
2026-04-25 07:03 35.53434 139.80218 32 ft 22 kts 149°
2026-04-25 07:04 35.53297 139.80316 36 ft 25 kts 150°
2026-04-25 07:04 35.53147 139.80423 44 ft 26 kts 150°
2026-04-25 07:04 35.53033 139.80503 48 ft 12 kts 150°
2026-04-25 07:04 35.52954 139.80517 48 ft 12 kts 209°
2026-04-25 07:05 35.52873 139.80429 48 ft 21 kts 222°
2026-04-25 07:05 35.52755 139.80295 49 ft 23 kts 223°
2026-04-25 07:05 35.52651 139.80177 48 ft 14 kts 222°
2026-04-25 07:05 35.52575 139.80147 48 ft 12 kts 158°
2026-04-25 07:06 35.52516 139.80218 50 ft 12 kts 132°
2026-04-25 07:06 35.52457 139.80296 50 ft 13 kts 133°
2026-04-25 07:06 35.52425 139.80364 51 ft 7 kts 87°
2026-04-25 07:06 35.52440 139.80392 53 ft 1 kts 42°
2026-04-25 07:07 35.52452 139.80406 52 ft 13 kts 42°
2026-04-25 07:07 35.52709 139.80693 51 ft 87 kts 42°
2026-04-25 07:07 35.53320 139.81380 46 ft 149 kts 43°
2026-04-25 07:08 35.54125 139.82307 597 ft 159 kts 44°
2026-04-25 07:08 35.54941 139.83226 1427 ft 161 kts 45°
2026-04-25 07:08 35.55777 139.84168 2043 ft 170 kts 45°
2026-04-25 07:08 35.56556 139.85326 2404 ft 184 kts 68°
2026-04-25 07:09 35.56656 139.86943 2620 ft 204 kts 109°
2026-04-25 07:09 35.56038 139.88565 2856 ft 222 kts 113°
2026-04-25 07:09 35.55440 139.90390 3112 ft 238 kts 109°
2026-04-25 07:09 35.54857 139.92343 3558 ft 251 kts 116°
2026-04-25 07:10 35.53727 139.93991 4227 ft 257 kts 143°
2026-04-25 07:10 35.52071 139.94850 4888 ft 264 kts 171°
2026-04-25 07:10 35.50217 139.94784 5499 ft 270 kts 188°
2026-04-25 07:10 35.48360 139.94358 6048 ft 279 kts 192°
2026-04-25 07:11 35.46440 139.93829 6692 ft 284 kts 200°
2026-04-25 07:11 35.44768 139.92626 7395 ft 281 kts 224°
2026-04-25 07:11 35.43397 139.90889 8126 ft 282 kts 229°
2026-04-25 07:11 35.42087 139.89111 8842 ft 285 kts 230°
2026-04-25 07:12 35.40751 139.87292 9624 ft 286 kts 229°
2026-04-25 07:12 35.38005 139.83587 10542 ft 314 kts 229°
2026-04-25 07:12 35.36471 139.81536 10719 ft 335 kts 229°
2026-04-25 07:13 35.34863 139.79395 10878 ft 355 kts 229°
2026-04-25 07:13 35.33137 139.77105 11027 ft 374 kts 229°
2026-04-25 07:13 35.31329 139.74714 11337 ft 385 kts 228°
2026-04-25 07:13 35.29409 139.72459 12255 ft 380 kts 223°
2026-04-25 07:14 35.27392 139.70362 12997 ft 381 kts 221°
2026-04-25 07:14 35.25350 139.68309 13593 ft 386 kts 220°
2026-04-25 07:14 35.23267 139.66209 14201 ft 390 kts 221°
2026-04-25 07:14 35.21183 139.64081 14943 ft 388 kts 221°
2026-04-25 07:15 35.19144 139.61977 15739 ft 386 kts 222°
2026-04-25 07:15 35.17092 139.59846 16497 ft 385 kts 223°
2026-04-25 07:15 35.15045 139.57714 17219 ft 386 kts 223°
2026-04-25 07:15 35.13100 139.55500 17895 ft 385 kts 231°
2026-04-25 07:16 35.11531 139.52849 18567 ft 383 kts 240°
2026-04-25 07:16 35.10337 139.49962 19146 ft 383 kts 249°
2026-04-25 07:16 35.09458 139.46891 19689 ft 384 kts 252°
2026-04-25 07:16 35.08608 139.43784 20200 ft 386 kts 252°
2026-04-25 07:17 35.07754 139.40686 20717 ft 388 kts 251°
2026-04-25 07:17 35.06880 139.37549 21241 ft 389 kts 251°
2026-04-25 07:17 35.06009 139.34455 21728 ft 391 kts 251°
2026-04-25 07:17 35.05117 139.31300 22209 ft 393 kts 251°
2026-04-25 07:18 35.04216 139.28128 22666 ft 394 kts 251°
2026-04-25 07:18 35.03329 139.24992 23095 ft 396 kts 252°
2026-04-25 07:18 35.02636 139.21716 23519 ft 398 kts 258°
2026-04-25 07:18 35.02107 139.18401 23909 ft 399 kts 258°
2026-04-25 07:19 35.01575 139.15100 24284 ft 400 kts 258°
2026-04-25 07:19 35.01028 139.11751 24706 ft 399 kts 258°
2026-04-25 07:19 35.00485 139.08471 25130 ft 398 kts 258°
2026-04-25 07:19 34.99936 139.05181 25497 ft 398 kts 258°
2026-04-25 07:20 34.99380 139.01858 25842 ft 398 kts 258°
2026-04-25 07:20 34.98851 138.98546 26250 ft 397 kts 260°
2026-04-25 07:20 34.98588 138.95232 26838 ft 392 kts 264°
2026-04-25 07:20 34.98429 138.91941 27478 ft 385 kts 264°
2026-04-25 07:21 34.98274 138.88749 28069 ft 377 kts 264°
2026-04-25 07:21 34.98116 138.85549 28193 ft 377 kts 264°
2026-04-25 07:21 34.97785 138.79166 28217 ft 380 kts 264°
2026-04-25 07:22 34.97442 138.72739 28231 ft 378 kts 264°
2026-04-25 07:22 34.97097 138.66368 28224 ft 376 kts 264°
2026-04-25 07:23 34.96750 138.60024 28228 ft 381 kts 264°
2026-04-25 07:23 34.96388 138.53503 28225 ft 392 kts 264°
2026-04-25 07:24 34.96015 138.46812 28203 ft 396 kts 264°
2026-04-25 07:24 34.95640 138.40125 28196 ft 394 kts 264°
2026-04-25 07:25 34.95263 138.33470 28197 ft 394 kts 264°
2026-04-25 07:25 34.94949 138.27959 28191 ft 394 kts 264°
2026-04-25 07:26 34.94563 138.21306 28198 ft 394 kts 264°
2026-04-25 07:26 34.94179 138.14664 28211 ft 393 kts 264°
2026-04-25 07:27 34.93724 138.06911 28193 ft 395 kts 264°
2026-04-25 07:27 34.93327 138.00228 28194 ft 396 kts 264°
2026-04-25 07:28 34.92929 137.93529 28198 ft 397 kts 264°
2026-04-25 07:28 34.92593 137.87925 28187 ft 398 kts 264°
2026-04-25 07:29 34.92122 137.80102 28194 ft 399 kts 264°
2026-04-25 07:29 34.91800 137.74464 28199 ft 399 kts 264°
2026-04-25 07:30 34.91225 137.67781 28175 ft 398 kts 258°
2026-04-25 07:30 34.89543 137.61350 28197 ft 398 kts 250°
2026-04-25 07:31 34.87614 137.55062 28187 ft 398 kts 250°
2026-04-25 07:31 34.85706 137.48747 28186 ft 398 kts 250°
2026-04-25 07:32 34.83843 137.42396 28180 ft 398 kts 251°
2026-04-25 07:32 34.82055 137.36070 28178 ft 397 kts 251°
2026-04-25 07:33 34.80250 137.29709 28178 ft 396 kts 251°
2026-04-25 07:33 34.78440 137.23376 28178 ft 396 kts 251°
2026-04-25 07:34 34.76724 137.17395 28177 ft 396 kts 251°
2026-04-25 07:34 34.74912 137.11092 28179 ft 396 kts 251°
2026-04-25 07:35 34.73103 137.04812 28181 ft 396 kts 251°
2026-04-25 07:35 34.71283 136.98510 28181 ft 396 kts 251°
2026-04-25 07:36 34.69083 136.92348 28182 ft 397 kts 244°
2026-04-25 07:36 34.66534 136.86417 28178 ft 397 kts 244°
2026-04-25 07:37 34.63997 136.80482 28194 ft 397 kts 244°
2026-04-25 07:37 34.61466 136.74544 28188 ft 397 kts 244°
2026-04-25 07:38 34.58918 136.68570 28183 ft 397 kts 244°
2026-04-25 07:38 34.56393 136.62658 28193 ft 396 kts 244°
2026-04-25 07:39 34.53857 136.56732 28190 ft 396 kts 244°
2026-04-25 07:39 34.51327 136.50828 28180 ft 396 kts 244°
2026-04-25 07:40 34.48788 136.44916 28202 ft 395 kts 244°
2026-04-25 07:40 34.46238 136.38985 28194 ft 396 kts 244°
2026-04-25 07:41 34.43697 136.33087 28175 ft 396 kts 244°
2026-04-25 07:41 34.41149 136.27183 27821 ft 401 kts 244°
2026-04-25 07:42 34.39846 136.24166 27043 ft 401 kts 244°
2026-04-25 07:42 34.38584 136.21249 26387 ft 395 kts 244°
2026-04-25 07:42 34.37304 136.18290 25780 ft 390 kts 244°
2026-04-25 07:42 34.36047 136.15388 25126 ft 386 kts 243°
2026-04-25 07:43 34.34812 136.12540 24469 ft 385 kts 244°
2026-04-25 07:43 34.33581 136.09660 23800 ft 384 kts 244°
2026-04-25 07:43 34.32357 136.06780 23036 ft 385 kts 244°
2026-04-25 07:43 34.31147 136.03930 22399 ft 392 kts 244°
2026-04-25 07:44 34.29872 136.00933 21739 ft 398 kts 244°
2026-04-25 07:44 34.28625 135.98008 21074 ft 394 kts 243°
2026-04-25 07:44 34.27370 135.95076 20439 ft 389 kts 244°
2026-04-25 07:44 34.26131 135.92178 19827 ft 385 kts 244°
2026-04-25 07:45 34.24914 135.89330 19208 ft 382 kts 244°
2026-04-25 07:45 34.23692 135.86471 18591 ft 380 kts 244°
2026-04-25 07:45 34.22499 135.83680 17909 ft 378 kts 244°
2026-04-25 07:45 34.21288 135.80846 17239 ft 375 kts 244°
2026-04-25 07:46 34.20104 135.78077 16648 ft 371 kts 244°
2026-04-25 07:46 34.18926 135.75328 16054 ft 368 kts 243°
2026-04-25 07:46 34.17754 135.72598 15450 ft 365 kts 243°
2026-04-25 07:46 34.16597 135.69902 14902 ft 362 kts 243°
2026-04-25 07:47 34.15438 135.67202 14332 ft 361 kts 243°
2026-04-25 07:47 34.14297 135.64544 13735 ft 359 kts 243°
2026-04-25 07:47 34.13142 135.61859 13093 ft 358 kts 243°
2026-04-25 07:47 34.12001 135.59207 12415 ft 361 kts 242°
2026-04-25 07:48 34.10828 135.56486 11826 ft 364 kts 243°
2026-04-25 07:48 34.09666 135.53789 11246 ft 365 kts 243°
2026-04-25 07:48 34.08506 135.51100 11050 ft 355 kts 243°
2026-04-25 07:48 34.07389 135.48512 10887 ft 346 kts 243°
2026-04-25 07:49 34.06288 135.45962 10723 ft 335 kts 243°
2026-04-25 07:49 34.05225 135.43505 10578 ft 324 kts 243°
2026-04-25 07:49 34.04213 135.41167 10449 ft 313 kts 243°
2026-04-25 07:49 34.03217 135.38862 10312 ft 304 kts 243°
2026-04-25 07:50 34.02263 135.36649 10184 ft 294 kts 243°
2026-04-25 07:50 34.01330 135.34484 10063 ft 286 kts 243°
2026-04-25 07:50 34.00431 135.32398 9842 ft 281 kts 243°
2026-04-25 07:50 33.99521 135.30291 9543 ft 279 kts 243°
2026-04-25 07:51 33.98639 135.28246 9261 ft 277 kts 243°
2026-04-25 07:51 33.97750 135.26190 8982 ft 275 kts 243°
2026-04-25 07:51 33.96864 135.24139 8694 ft 273 kts 243°
2026-04-25 07:51 33.95996 135.22131 8419 ft 272 kts 243°
2026-04-25 07:52 33.95122 135.20111 8141 ft 270 kts 242°
2026-04-25 07:52 33.94263 135.18125 7871 ft 268 kts 242°
2026-04-25 07:52 33.93400 135.16135 7608 ft 267 kts 242°
2026-04-25 07:52 33.92547 135.14169 7341 ft 265 kts 242°
2026-04-25 07:53 33.91713 135.12182 7066 ft 265 kts 249°
2026-04-25 07:53 33.91485 135.10026 6790 ft 264 kts 278°
2026-04-25 07:53 33.92061 135.07932 6551 ft 262 kts 297°
2026-04-25 07:53 33.92893 135.05998 6258 ft 263 kts 297°
2026-04-25 07:54 33.93740 135.04041 5974 ft 263 kts 297°
2026-04-25 07:54 33.94584 135.02081 5703 ft 263 kts 297°
2026-04-25 07:54 33.95410 135.00129 5429 ft 263 kts 297°
2026-04-25 07:54 33.96239 134.98154 5154 ft 263 kts 297°
2026-04-25 07:55 33.97060 134.96193 4877 ft 264 kts 297°
2026-04-25 07:55 33.97886 134.94221 4595 ft 264 kts 298°
2026-04-25 07:55 33.98912 134.92417 4293 ft 263 kts 311°
2026-04-25 07:55 34.00144 134.90784 4028 ft 263 kts 314°
2026-04-25 07:56 34.01405 134.89180 3749 ft 261 kts 314°
2026-04-25 07:56 34.02620 134.87623 3571 ft 251 kts 314°
2026-04-25 07:56 34.03781 134.86116 3446 ft 238 kts 313°
2026-04-25 07:56 34.04869 134.84686 3377 ft 230 kts 313°
2026-04-25 07:57 34.05945 134.83264 3290 ft 228 kts 313°
2026-04-25 07:57 34.06991 134.81874 3166 ft 219 kts 312°
2026-04-25 07:57 34.07987 134.80548 2964 ft 212 kts 312°
2026-04-25 07:57 34.08964 134.79247 2773 ft 205 kts 312°
2026-04-25 07:58 34.09890 134.77985 2545 ft 199 kts 305°
2026-04-25 07:58 34.10360 134.76458 2360 ft 191 kts 279°
2026-04-25 07:58 34.10630 134.74893 2119 ft 192 kts 281°
2026-04-25 07:58 34.10925 134.73313 1860 ft 191 kts 281°
2026-04-25 07:59 34.11209 134.71792 1606 ft 186 kts 281°
2026-04-25 07:59 34.11491 134.70284 1371 ft 182 kts 281°
2026-04-25 07:59 34.11765 134.68819 1115 ft 175 kts 281°
2026-04-25 07:59 34.12024 134.67430 929 ft 162 kts 281°
2026-04-25 08:00 34.12257 134.66173 731 ft 153 kts 281°
2026-04-25 08:00 34.12489 134.64919 503 ft 152 kts 282°
2026-04-25 08:00 34.12720 134.63688 311 ft 150 kts 281°
2026-04-25 08:00 34.12943 134.62458 123 ft 151 kts 281°
2026-04-25 08:01 34.13167 134.61236 20 ft 138 kts 282°
2026-04-25 08:01 34.13329 134.60372 22 ft 58 kts 283°
2026-04-25 08:01 34.13379 134.60179 26 ft 15 kts 321°
2026-04-25 08:01 34.13476 134.60179 22 ft 14 kts 16°
2026-04-25 08:02 34.13515 134.60272 21 ft 13 kts 99°
2026-04-25 08:02 34.13496 134.60386 21 ft 16 kts 102°
2026-04-25 08:02 34.13464 134.60559 21 ft 26 kts 103°
2026-04-25 08:02 34.13421 134.60794 21 ft 29 kts 102°
2026-04-25 08:03 34.13378 134.61029 21 ft 28 kts 102°
2026-04-25 08:03 34.13337 134.61246 21 ft 26 kts 102°
2026-04-25 08:03 34.13300 134.61449 21 ft 24 kts 102°
2026-04-25 08:03 34.13269 134.61614 21 ft 19 kts 103°
2026-04-25 08:04 34.13250 134.61714 21 ft 8 kts 101°
2026-04-25 08:04 34.13286 134.61757 21 ft 8 kts 14°
2026-04-25 08:04 34.13339 134.61771 21 ft 8 kts 13°
2026-04-25 08:04 34.13369 134.61780 21 ft 1 kts 13°
2026-04-25 08:05 34.13374 134.61781 21 ft 0 kts 13°